Find Kosmos-1241

NORAD ID: 12149 Int'l Des: 1981-006 Owner: PKO Country: SU operational
LEOCIRCULAR

当前视图

正在加载3D地球...

关于 Kosmos-1241

正在加载描述...

即将过境

Passes for default location (London). Set your location on the main map for personalized predictions.

高度历史

Loading altitude history...

两行轨道根数

1 12149U 81006A 26151.19243933 -.00000059 00000-0 23161-4 0 9993
2 12149 65.8218 173.4739 0010550 185.1337 248.7599 13.72232636272473
Epoch: May 31, 2026 • Age: 11 hours

当前状态

高度 992.5 km
速度 7.36 km/s
星下点 -24.34°S, 121.54°W
发射日期 Jan 21, 1981
运行时间 45.3 years
类型 other

技术详情

分类 Payload
质量 1045.00 kg
干质量 925.00 kg
总质量 1045.00 kg
长度 2.50 m
直径 1.80 m
跨度 23.00 m
形状 Cyl + Ant
制造商 YUZH
平台类型 Romb
阶段状态 In Orbit
所有者/国家 PKO/SU

Most Searched